WX5II-2 Weather Reports


Display with metric or nautical units.
time (UTC)temp
F
wind
direction
speed
MPH
gust
MPH
rain 1hr
in
rain 24hr
in
rain mn
in
humidity
%
barometer
mb
20240625145334 87 351 7.0 11.0 0.00 0.00 0.00 58 1010.8
20240625144310 87 347 8.0 11.0 0.00 0.00 0.00 59 1011.8
20240625143246 87 347 9.0 10.0 0.00 0.00 0.00 59 1011.8
20240625142223 86 335 5.0 10.0 0.00 0.00 0.00 63 1011.8
20240625141200 84 346 7.0 9.0 0.00 0.00 0.00 68 1011.8
20240625140136 83 343 10.0 12.0 0.00 0.00 0.00 75 1011.8
20240625135104 81 346 10.0 13.0 0.00 0.00 0.00 76 1011.8
20240625134041 81 341 8.0 10.0 0.00 0.00 0.00 82 1012.8
20240625131950 80 340 10.0 12.0 0.00 0.00 0.00 81 1011.8
20240625130927 80 342 6.0 10.0 0.00 0.00 0.00 83 1011.8
20240625125903 79 338 7.0 7.0 0.00 0.00 0.00 85 1012.8
20240625124840 79 338 4.0 9.0 0.00 0.00 0.00 89 1012.8
20240625123813 78 340 6.0 10.0 0.00 0.00 0.00 91 1012.8
20240625122750 78 339 7.0 9.0 0.00 0.00 0.00 92 1012.8
20240625121727 77 341 7.0 9.0 0.00 0.00 0.00 91 1011.8
20240625120704 77 341 9.0 10.0 0.00 0.00 0.00 91 1011.8
20240625115641 77 341 7.0 8.0 0.00 0.00 0.00 91 1011.8
20240625114618 77 339 5.0 8.0 0.00 0.00 0.00 91 1011.8
20240625113555 77 345 7.0 9.0 0.00 0.00 0.00 92 1011.8
20240625112532 77 343 4.0 6.0 0.00 0.00 0.00 92 1011.8
20240625111509 77 343 5.0 7.0 0.00 0.00 0.00 92 1011.8
20240625110447 76 343 5.0 7.0 0.00 0.00 0.00 92 1011.8
20240625105424 76 346 4.0 6.0 0.00 0.00 0.00 92 1011.8
20240625104402 76 345 4.0 7.0 0.00 0.00 0.00 91 1011.8
20240625103338 76 346 4.0 5.0 0.00 0.00 0.00 90 1011.8
20240625101242 77 346 4.0 6.0 0.00 0.00 0.00 88 1011.8
20240625100219 77 346 5.0 7.0 0.00 0.00 0.00 88 1011.8
20240625095142 77 347 4.0 6.0 0.00 0.00 0.00 87 1011.8
20240625094119 77 347 5.0 7.0 0.00 0.00 0.00 86 1011.8
20240625093056 77 346 5.0 7.0 0.00 0.00 0.00 85 1011.8
20240625092033 77 346 5.0 6.0 0.00 0.00 0.00 85 1010.8
20240625091010 77 347 5.0 7.0 0.00 0.00 0.00 84 1010.8
20240625085947 78 347 6.0 7.0 0.00 0.00 0.00 83 1010.8
20240625084919 78 346 4.0 6.0 0.00 0.00 0.00 82 1011.8
20240625083843 78 346 4.0 7.0 0.00 0.00 0.00 81 1011.8
20240625082806 78 347 5.0 6.0 0.00 0.00 0.00 80 1011.8
20240625081739 78 340 5.0 6.0 0.00 0.00 0.00 79 1011.8
20240625080713 78 332 5.0 5.0 0.00 0.00 0.00 78 1011.8
20240625075650 79 337 4.0 6.0 0.00 0.00 0.00 78 1010.8
20240625074618 79 334 4.0 7.0 0.00 0.00 0.00 78 1011.8
20240625073555 79 336 6.0 8.0 0.00 0.00 0.00 76 1011.8
20240625072532 79 345 7.0 7.0 0.00 0.00 0.00 76 1010.8
20240625070436 80 345 7.0 9.0 0.00 0.00 0.00 74 1011.8
20240625065410 80 347 7.0 9.0 0.00 0.00 0.00 73 1011.8
20240625064332 80 347 7.0 7.0 0.00 0.00 0.00 73 1011.8
20240625062237 80 346 8.0 10.0 0.00 0.00 0.00 71 1011.8
20240625061204 81 344 9.0 10.0 0.00 0.00 0.00 69 1011.8
20240625060131 81 347 8.0 10.0 0.00 0.00 0.00 68 1011.8
20240625055104 81 346 7.0 9.0 0.00 0.00 0.00 68 1011.8
20240625054041 81 347 7.0 10.0 0.00 0.00 0.00 66 1011.8
20240625053017 82 347 8.0 8.0 0.00 0.00 0.00 65 1011.8
20240625051954 82 347 7.0 8.0 0.00 0.00 0.00 64 1011.8
20240625050931 82 346 7.0 9.0 0.00 0.00 0.00 63 1011.8
20240625045908 83 351 7.0 9.0 0.00 0.00 0.00 62 1010.8
20240625044845 83 351 8.0 11.0 0.00 0.00 0.00 61 1010.8
20240625043939 83 351 8.0 10.0 0.00 0.00 0.00 59 1010.8
20240625043822 83 351 8.0 10.0 0.00 0.00 0.00 59 1010.8
20240625042759 83 351 8.0 10.0 0.00 0.00 0.00 59 1010.8
20240625041735 84 351 9.0 12.0 0.00 0.00 0.00 57 1010.8
20240625040713 84 351 13.0 11.0 0.00 0.00 0.00 55 1010.8
20240625035650 85 351 8.0 9.0 0.00 0.00 0.00 54 1010.8
20240625034626 85 351 9.0 10.0 0.00 0.00 0.00 53 1009.8
20240625032540 85 351 8.0 9.0 0.00 0.00 0.00 52 1009.8
20240625031516 86 351 7.0 8.0 0.00 0.00 0.00 51 1009.8
20240625030453 86 351 8.0 9.0 0.00 0.00 0.00 50 1009.8
20240625025430 86 351 7.0 8.0 0.00 0.00 0.00 49 1009.8
20240625024406 87 351 7.0 7.0 0.00 0.00 0.00 48 1009.8
20240625023339 87 344 7.0 9.0 0.00 0.00 0.00 47 1008.8
20240625021252 88 341 8.0 10.0 0.00 0.00 0.00 46 1008.8
20240625020228 88 351 9.0 10.0 0.00 0.00 0.00 45 1008.8
20240625015205 88 351 10.0 13.0 0.00 0.00 0.00 45 1008.8
20240625014141 89 351 8.0 11.0 0.00 0.00 0.00 44 1008.8
20240625013118 89 351 8.0 10.0 0.00 0.00 0.00 43 1008.8
20240625012054 90 351 7.0 10.0 0.00 0.00 0.00 43 1008.8
20240625011032 90 351 7.0 12.0 0.00 0.00 0.00 42 1008.8
20240625010008 90 351 9.0 11.0 0.00 0.00 0.00 42 1008.8
20240625004945 91 351 8.0 11.0 0.00 0.00 0.00 42 1008.8
20240625003921 91 351 10.0 13.0 0.00 0.00 0.00 40 1008.8
20240625002858 92 347 9.0 15.0 0.00 0.00 0.00 40 1008.8
20240625001829 92 344 9.0 9.0 0.00 0.00 0.00 40 1008.8
20240625000806 93 344 9.0 12.0 0.00 0.00 0.00 39 1008.8
20240624234714 93 344 10.0 13.0 0.00 0.00 0.00 41 1008.8
20240624233650 92 344 7.0 12.0 0.00 0.00 0.00 39 1008.8
20240624232622 93 343 10.0 13.0 0.00 0.00 0.00 39 1008.8
20240624231558 93 344 10.0 14.0 0.00 0.00 0.00 38 1008.8
20240624230521 93 344 10.0 15.0 0.00 0.00 0.00 40 1008.8
20240624225448 92 342 5.0 11.0 0.00 0.00 0.00 40 1008.8
20240624224409 93 345 9.0 13.0 0.00 0.00 0.00 40 1008.8
20240624223340 94 344 9.0 13.0 0.00 0.00 0.00 38 1008.8
20240624221238 95 342 10.0 15.0 0.00 0.00 0.00 37 1008.8
20240624220209 95 343 10.0 14.0 0.00 0.00 0.00 37 1008.8
20240624215145 95 342 11.0 13.0 0.00 0.00 0.00 37 1008.8
20240624214108 95 342 10.0 13.0 0.00 0.00 0.00 38 1008.8
20240624213031 95 343 10.0 13.0 0.00 0.00 0.00 38 1008.8
20240624212007 95 343 9.0 12.0 0.00 0.00 0.00 38 1008.8
20240624210943 96 343 7.0 13.0 0.00 0.00 0.00 36 1008.8
20240624205914 95 345 11.0 10.0 0.00 0.00 0.00 37 1008.8
20240624204850 95 343 6.0 12.0 0.00 0.00 0.00 38 1008.8
20240624202803 97 343 8.0 13.0 0.00 0.00 0.00 36 1009.8
20240624201739 96 342 5.0 12.0 0.00 0.00 0.00 36 1009.8
20240624200715 95 351 5.0 12.0 0.00 0.00 0.00 37 1009.8
20240624195651 94 351 8.0 14.0 0.00 0.00 0.00 37 1009.8
20240624194627 94 351 9.0 11.0 0.00 0.00 0.00 40 1010.8
20240624193603 93 351 11.0 12.0 0.00 0.00 0.00 41 1010.8
20240624192540 93 351 10.0 14.0 0.00 0.00 0.00 40 1010.8
20240624191516 94 351 4.0 11.0 0.00 0.00 0.00 42 1010.8
20240624190452 93 351 9.0 13.0 0.00 0.00 0.00 40 1010.8
20240624185428 92 351 8.0 10.0 0.00 0.00 0.00 43 1010.8
20240624184404 93 351 10.0 13.0 0.00 0.00 0.00 42 1010.8
20240624183341 92 351 3.0 10.0 0.00 0.00 0.00 45 1010.8
20240624181254 91 351 9.0 12.0 0.00 0.00 0.00 48 1010.8
20240624180230 90 351 6.0 8.0 0.00 0.00 0.00 52 1011.8
20240624175206 89 351 6.0 7.0 0.00 0.00 0.00 54 1011.8
20240624174143 89 351 7.0 7.0 0.00 0.00 0.00 56 1011.8
20240624173119 89 351 7.0 12.0 0.00 0.00 0.00 54 1011.8
20240624172055 90 351 5.0 7.0 0.00 0.00 0.00 52 1011.8
20240624171032 90 351 5.0 7.0 0.00 0.00 0.00 52 1011.8
20240624170009 89 351 0.0 7.0 0.00 0.00 0.00 57 1011.8
20240624164945 88 351 0.0 10.0 0.00 0.00 0.00 59 1011.8
20240624163921 89 351 6.0 9.0 0.00 0.00 0.00 56 1011.8
20240624162858 89 351 7.0 10.0 0.00 0.00 0.00 55 1011.8
20240624161834 89 344 0.0 9.0 0.00 0.00 0.00 57 1012.8
20240624160810 88 344 5.0 9.0 0.00 0.00 0.00 62 1012.8
20240624155747 87 341 5.0 7.0 0.00 0.00 0.00 62 1012.8
20240624154724 87 341 6.0 10.0 0.00 0.00 0.00 66 1012.8
20240624153700 87 338 8.0 9.0 0.00 0.00 0.00 63 1012.8
20240624152637 86 341 5.0 7.0 0.00 0.00 0.00 68 1012.8
20240624151614 84 347 0.0 6.0 0.00 0.00 0.00 73 1012.8
20240624150550 83 347 5.0 7.0 0.00 0.00 0.00 75 1012.8
20240624145528 82 346 7.0 8.0 0.00 0.00 0.00 76 1012.8